DW2149 Weather Reports


Display with metric or nautical units.
time (UTC)temp
F
wind
direction
speed
MPH
gust
MPH
rain 1hr
in
rain 24hr
in
rain mn
in
humidity
%
barometer
mb
20260905234641 79 272 0.0 6.0 0.00 0.00 0.00 37 1012.1
20260905234431 79 215 0.0 6.0 0.00 0.00 0.00 37 1012.2
20260905234224 79 208 0.0 6.0 0.00 0.00 0.00 38 1012.1
20260905234022 79 205 1.0 6.0 0.00 0.00 0.00 36 1012.1
20260905233818 79 205 1.0 6.0 0.00 0.00 0.00 36 1012.2
20260905233607 79 202 1.0 6.0 0.00 0.00 0.00 36 1012.2
20260905233356 79 215 1.0 6.0 0.00 0.00 0.00 37 1012.1
20260905233147 79 168 1.0 6.0 0.00 0.00 0.00 36 1012.1
20260905232943 79 219 1.0 6.0 0.00 0.00 0.00 36 1012.1
20260905232734 79 215 1.0 6.0 0.00 0.00 0.00 36 1012.1
20260905232532 79 215 1.0 8.0 0.00 0.00 0.00 36 1012.1
20260905232326 79 214 1.0 8.0 0.00 0.00 0.00 35 1012.2
20260905232117 79 224 1.0 8.0 0.00 0.00 0.00 36 1012.2
20260905231915 79 221 0.0 8.0 0.00 0.00 0.00 36 1012.2
20260905231522 79 213 1.0 8.0 0.00 0.00 0.00 37 1012.3
20260905231319 79 212 1.0 8.0 0.00 0.00 0.00 36 1012.3
20260905230931 79 196 1.0 8.0 0.00 0.00 0.00 37 1012.4
20260905230719 79 217 1.0 5.0 0.00 0.00 0.00 38 1012.5
20260905230515 79 218 0.0 5.0 0.00 0.00 0.00 38 1012.4
20260905230309 79 219 1.0 4.0 0.00 0.00 0.00 38 1012.4
20260905225921 78 222 1.0 3.0 0.00 0.00 0.00 38 1012.5
20260905225716 78 222 2.0 7.0 0.00 0.00 0.00 38 1012.5
20260905225143 79 234 2.0 7.0 0.00 0.00 0.00 37 1012.6
20260905224933 78 175 1.0 7.0 0.00 0.00 0.00 37 1012.6
20260905224543 78 83 1.0 7.0 0.00 0.00 0.00 38 1012.6
20260905224331 79 197 0.0 7.0 0.00 0.00 0.00 39 1012.7
20260905224124 79 234 0.0 7.0 0.00 0.00 0.00 38 1012.6
20260905223918 79 209 0.0 5.0 0.00 0.00 0.00 38 1012.5
20260905223523 79 157 1.0 5.0 0.00 0.00 0.00 38 1012.6
20260905223319 78 232 1.0 5.0 0.00 0.00 0.00 38 1012.6
20260905222925 78 215 0.0 5.0 0.00 0.00 0.00 38 1012.6
20260905222722 78 224 1.0 7.0 0.00 0.00 0.00 38 1012.6
20260905222513 78 213 0.0 7.0 0.00 0.00 0.00 40 1012.7
20260905221933 78 223 1.0 7.0 0.00 0.00 0.00 40 1012.8
20260905221721 78 225 2.0 7.0 0.00 0.00 0.00 40 1012.8
20260905221515 78 215 2.0 7.0 0.00 0.00 0.00 39 1012.8
20260905221314 78 209 2.0 7.0 0.00 0.00 0.00 40 1012.8
20260905221104 78 79 2.0 7.0 0.00 0.00 0.00 40 1012.8
20260905220859 78 230 1.0 7.0 0.00 0.00 0.00 39 1012.8
20260905220656 78 226 1.0 6.0 0.00 0.00 0.00 41 1012.8
20260905220310 78 209 1.0 6.0 0.00 0.00 0.00 40 1012.8
20260905220103 78 199 1.0 5.0 0.00 0.00 0.00 41 1012.8
20260905215858 78 216 1.0 5.0 0.00 0.00 0.00 42 1012.8
20260905215654 78 226 1.0 5.0 0.00 0.00 0.00 41 1012.8
20260905215446 78 75 1.0 4.0 0.00 0.00 0.00 40 1012.8
20260905215241 79 213 1.0 6.0 0.00 0.00 0.00 40 1012.9
20260905215036 79 213 1.0 6.0 0.00 0.00 0.00 39 1012.9
20260905214834 79 218 1.0 6.0 0.00 0.00 0.00 39 1012.9
20260905214626 79 211 0.0 6.0 0.00 0.00 0.00 39 1012.8
20260905214230 79 222 0.0 4.0 0.00 0.00 0.00 39 1012.8
20260905214017 78 244 0.0 3.0 0.00 0.00 0.00 40 1013.0
20260905213815 78 194 0.0 0.0 0.00 0.00 0.00 42 1013.0
20260905213608 78 194 2.0 8.0 0.00 0.00 0.00 42 1013.1
20260905213356 77 209 2.0 8.0 0.00 0.00 0.00 41 1013.1
20260905213152 77 207 2.0 8.0 0.00 0.00 0.00 40 1013.0
20260905212941 78 231 2.0 8.0 0.00 0.00 0.00 40 1013.1
20260905212736 78 257 1.0 8.0 0.00 0.00 0.00 40 1013.1
20260905212529 78 238 1.0 8.0 0.00 0.00 0.00 40 1013.0
20260905212319 78 213 2.0 8.0 0.00 0.00 0.00 40 1013.1
20260905212109 78 196 2.0 8.0 0.00 0.00 0.00 39 1013.1
20260905211902 78 223 2.0 8.0 0.00 0.00 0.00 42 1013.0
20260905211656 78 225 2.0 8.0 0.00 0.00 0.00 39 1013.1
20260905211452 78 207 2.0 8.0 0.00 0.00 0.00 40 1013.1
20260905211249 78 195 2.0 8.0 0.00 0.00 0.00 40 1013.1
20260905211043 78 209 2.0 8.0 0.00 0.00 0.00 41 1013.1
20260905210839 78 236 1.0 8.0 0.00 0.00 0.00 41 1013.1
20260905210301 77 226 1.0 8.0 0.00 0.00 0.00 42 1013.0
20260905205909 77 54 1.0 8.0 0.00 0.00 0.00 42 1013.0
20260905205657 77 200 1.0 8.0 0.00 0.00 0.00 42 1013.0
20260905205452 77 329 1.0 8.0 0.00 0.00 0.00 41 1013.0
20260905205245 77 304 1.0 8.0 0.00 0.00 0.00 42 1013.0
20260905205035 77 159 1.0 8.0 0.00 0.00 0.00 42 1013.1
20260905204824 77 248 1.0 8.0 0.00 0.00 0.00 42 1013.1
20260905204622 76 225 1.0 8.0 0.00 0.00 0.00 42 1013.1
20260905204420 76 215 0.0 6.0 0.00 0.00 0.00 44 1013.0
20260905204207 76 235 1.0 6.0 0.00 0.00 0.00 42 1013.1
20260905203957 76 235 1.0 6.0 0.00 0.00 0.00 42 1013.1
20260905203750 76 235 1.0 6.0 0.00 0.00 0.00 43 1013.1
20260905203209 76 218 1.0 7.0 0.00 0.00 0.00 43 1013.1
20260905203005 76 193 0.0 7.0 0.00 0.00 0.00 45 1013.1
20260905202802 76 195 1.0 7.0 0.00 0.00 0.00 45 1013.1
20260905202555 76 205 1.0 7.0 0.00 0.00 0.00 43 1013.2
20260905202343 76 211 1.0 7.0 0.00 0.00 0.00 43 1013.2
20260905201949 76 39 0.0 7.0 0.00 0.00 0.00 45 1013.2
20260905201742 76 218 0.0 7.0 0.00 0.00 0.00 44 1013.2
20260905201532 76 218 1.0 7.0 0.00 0.00 0.00 44 1013.2
20260905201324 76 225 0.0 6.0 0.00 0.00 0.00 46 1013.2
20260905201115 75 225 1.0 6.0 0.00 0.00 0.00 44 1013.2
20260905200905 75 223 1.0 7.0 0.00 0.00 0.00 45 1013.3
20260905200654 76 213 1.0 7.0 0.00 0.00 0.00 44 1013.2
20260905200308 75 218 1.0 7.0 0.00 0.00 0.00 45 1013.3
20260905195919 75 215 1.0 7.0 0.00 0.00 0.00 45 1013.2
20260905195715 75 215 1.0 7.0 0.00 0.00 0.00 45 1013.2
20260905195512 75 207 1.0 7.0 0.00 0.00 0.00 45 1013.2
20260905195306 74 207 1.0 7.0 0.00 0.00 0.00 46 1013.3
20260905194910 74 210 0.0 5.0 0.00 0.00 0.00 46 1013.3
20260905194704 74 213 1.0 5.0 0.00 0.00 0.00 46 1013.2
20260905194454 74 213 0.0 5.0 0.00 0.00 0.00 45 1013.2
20260905194249 74 214 1.0 6.0 0.00 0.00 0.00 46 1013.3
20260905194046 74 214 1.0 6.0 0.00 0.00 0.00 46 1013.3
20260905193836 73 214 1.0 6.0 0.00 0.00 0.00 47 1013.2
20260905193625 73 208 1.0 6.0 0.00 0.00 0.00 47 1013.3
20260905193415 73 227 1.0 7.0 0.00 0.00 0.00 48 1013.4
20260905193208 73 209 0.0 7.0 0.00 0.00 0.00 49 1013.4
20260905193001 73 222 0.0 7.0 0.00 0.00 0.00 50 1013.4
20260905192752 73 202 1.0 7.0 0.00 0.00 0.00 47 1013.4
20260905192544 73 202 1.0 7.0 0.00 0.00 0.00 47 1013.4
20260905192339 73 221 1.0 7.0 0.00 0.00 0.00 50 1013.4
20260905192133 73 221 2.0 7.0 0.00 0.00 0.00 48 1013.3
20260905191932 73 221 1.0 7.0 0.00 0.00 0.00 47 1013.5
20260905191720 73 217 1.0 7.0 0.00 0.00 0.00 46 1013.4
20260905191333 73 160 0.0 5.0 0.00 0.00 0.00 50 1013.5
20260905191125 73 264 0.0 0.0 0.00 0.00 0.00 52 1013.4
20260905190917 72 264 0.0 4.0 0.00 0.00 0.00 48 1013.4
20260905190709 72 264 0.0 4.0 0.00 0.00 0.00 50 1013.5
20260905190456 73 190 0.0 6.0 0.00 0.00 0.00 50 1013.6
20260905190250 73 217 1.0 6.0 0.00 0.00 0.00 56 1013.5
20260905190048 73 219 1.0 6.0 0.00 0.00 0.00 49 1013.6
20260905185652 73 219 1.0 6.0 0.00 0.00 0.00 51 1013.6
20260905185448 73 219 1.0 6.0 0.00 0.00 0.00 49 1013.6
20260905185235 73 248 0.0 6.0 0.00 0.00 0.00 52 1013.6
20260905185028 73 213 1.0 6.0 0.00 0.00 0.00 50 1013.7
20260905184825 72 211 1.0 6.0 0.00 0.00 0.00 50 1013.6
20260905184619 72 215 1.0 6.0 0.00 0.00 0.00 50 1013.6
20260905184230 72 206 2.0 6.0 0.00 0.00 0.00 52 1013.6
20260905184018 72 226 1.0 6.0 0.00 0.00 0.00 51 1013.6
20260905183808 71 215 1.0 6.0 0.00 0.00 0.00 53 1013.6
20260905183555 71 216 1.0 6.0 0.00 0.00 0.00 53 1013.5
20260905183349 70 175 1.0 6.0 0.00 0.00 0.00 55 1013.5
20260905183139 70 213 1.0 6.0 0.00 0.00 0.00 56 1013.4
20260905182932 69 213 1.0 6.0 0.00 0.00 0.00 55 1013.5
20260905182543 69 240 1.0 6.0 0.00 0.00 0.00 55 1013.5
20260905182337 69 217 0.0 5.0 0.00 0.00 0.00 55 1013.5
20260905182130 69 217 0.0 5.0 0.00 0.00 0.00 55 1013.6
20260905181919 69 217 0.0 5.0 0.00 0.00 0.00 55 1013.5
20260905181715 69 221 0.0 2.0 0.00 0.00 0.00 56 1013.5
20260905181513 69 221 1.0 6.0 0.00 0.00 0.00 56 1013.6
20260905181306 69 221 1.0 6.0 0.00 0.00 0.00 56 1013.5
20260905181101 69 223 1.0 6.0 0.00 0.00 0.00 56 1013.6
20260905180854 68 223 1.0 6.0 0.00 0.00 0.00 56 1013.5
20260905180647 68 223 1.0 6.0 0.00 0.00 0.00 56 1013.5
20260905180436 68 216 0.0 5.0 0.00 0.00 0.00 57 1013.5
20260905180224 68 215 0.0 4.0 0.00 0.00 0.00 57 1013.5
20260905180014 68 214 0.0 4.0 0.00 0.00 0.00 58 1013.4
20260905175802 68 61 0.0 3.0 0.00 0.00 0.00 58 1013.4
20260905175600 68 215 0.0 0.0 0.00 0.00 0.00 58 1013.3
20260905175359 67 215 1.0 6.0 0.00 0.00 0.00 58 1013.3
20260905175151 67 215 1.0 6.0 0.00 0.00 0.00 58 1013.4
20260905174940 67 214 1.0 6.0 0.00 0.00 0.00 58 1013.3
20260905174730 67 236 1.0 8.0 0.00 0.00 0.00 58 1013.3
20260905174528 67 229 1.0 8.0 0.00 0.00 0.00 59 1013.4
20260905174323 67 229 1.0 8.0 0.00 0.00 0.00 59 1013.3
20260905174120 67 108 1.0 8.0 0.00 0.00 0.00 60 1013.4
20260905173723 66 219 2.0 8.0 0.00 0.00 0.00 60 1013.5
20260905173515 66 213 1.0 8.0 0.00 0.00 0.00 61 1013.4
20260905173306 66 215 1.0 8.0 0.00 0.00 0.00 62 1013.4
20260905173053 66 215 1.0 8.0 0.00 0.00 0.00 62 1013.4
20260905172845 65 211 0.0 5.0 0.00 0.00 0.00 64 1013.4
20260905172454 65 82 0.0 1.0 0.00 0.00 0.00 65 1013.4
20260905172251 65 94 0.0 2.0 0.00 0.00 0.00 65 1013.5
20260905172041 64 224 1.0 2.0 0.00 0.00 0.00 65 1013.4
20260905171838 64 224 1.0 5.0 0.00 0.00 0.00 66 1013.4
20260905171631 64 231 0.0 5.0 0.00 0.00 0.00 67 1013.4
20260905171049 63 250 0.0 4.0 0.00 0.00 0.00 69 1013.3
20260905170837 63 217 0.0 0.0 0.00 0.00 0.00 70 1013.4
20260905170633 63 217 0.0 5.0 0.00 0.00 0.00 70 1013.4
20260905170422 62 50 0.0 3.0 0.00 0.00 0.00 71 1013.3
20260905170216 62 224 0.0 0.0 0.00 0.00 0.00 71 1013.3
20260905170012 62 224 0.0 2.0 0.00 0.00 0.00 72 1013.3
20260905165623 61 226 0.0 0.0 0.00 0.00 0.00 74 1013.3
20260905165421 61 226 0.0 0.0 0.00 0.00 0.00 76 1013.3
20260905165209 60 226 0.0 2.0 0.00 0.00 0.00 76 1013.3
20260905164818 60 226 0.0 4.0 0.00 0.00 0.00 78 1013.4
20260905164608 59 225 0.0 4.0 0.00 0.00 0.00 79 1013.4
20260905164357 59 227 0.0 4.0 0.00 0.00 0.00 80 1013.4
20260905164150 59 234 0.0 4.0 0.00 0.00 0.00 81 1013.4
20260905163758 58 234 0.0 4.0 0.00 0.00 0.00 83 1013.4
20260905163550 58 208 0.0 4.0 0.00 0.00 0.00 84 1013.4
20260905163156 57 231 0.0 4.0 0.00 0.00 0.00 84 1013.3
20260905162803 56 246 0.0 1.0 0.00 0.00 0.00 85 1013.3
20260905162553 56 246 0.0 3.0 0.00 0.00 0.00 85 1013.3
20260905162350 56 246 0.0 3.0 0.00 0.00 0.00 85 1013.3
20260905162146 56 246 0.0 3.0 0.00 0.00 0.00 86 1013.3
20260905161940 55 268 0.0 0.0 0.00 0.00 0.00 86 1013.3
20260905161731 55 268 0.0 0.0 0.00 0.00 0.00 86 1013.3
20260905161519 55 268 0.0 2.0 0.00 0.00 0.00 86 1013.3
20260905161313 54 268 0.0 1.0 0.00 0.00 0.00 86 1013.3
20260905160924 54 268 0.0 0.0 0.00 0.00 0.00 85 1013.3
20260905160722 54 268 0.0 0.0 0.00 0.00 0.00 85 1013.3
20260905160518 54 268 0.0 0.0 0.00 0.00 0.00 85 1013.3
20260905160308 53 268 0.0 0.0 0.00 0.00 0.00 85 1013.2
20260905160055 53 268 0.0 0.0 0.00 0.00 0.00 84 1013.2
20260905155848 53 268 0.0 0.0 0.00 0.00 0.00 84 1013.2
20260905155642 53 268 0.0 0.0 0.00 0.00 0.00 84 1013.2
20260905155434 53 268 0.0 0.0 0.00 0.00 0.00 84 1013.2
20260905155041 52 268 0.0 0.0 0.00 0.00 0.00 83 1013.2
20260905154836 52 268 0.0 0.0 0.00 0.00 0.00 83 1013.1
20260905154627 52 268 0.0 0.0 0.00 0.00 0.00 83 1013.2
20260905154420 52 268 0.0 0.0 0.00 0.00 0.00 83 1013.2
20260905154218 52 268 0.0 0.0 0.00 0.00 0.00 82 1013.2
20260905154006 52 268 0.0 0.0 0.00 0.00 0.00 82 1013.2
20260905153801 52 268 0.0 0.0 0.00 0.00 0.00 82 1013.2
20260905153551 52 268 0.0 0.0 0.00 0.00 0.00 82 1013.1
20260905153345 52 268 0.0 0.0 0.00 0.00 0.00 82 1013.2
20260905153144 51 268 0.0 0.0 0.00 0.00 0.00 82 1013.2
20260905152933 51 268 0.0 0.0 0.00 0.00 0.00 81 1013.1
20260905152720 51 268 0.0 0.0 0.00 0.00 0.00 81 1013.2
20260905152510 51 268 0.0 0.0 0.00 0.00 0.00 81 1013.2
20260905152258 51 268 0.0 0.0 0.00 0.00 0.00 81 1013.2
20260905152052 51 268 0.0 0.0 0.00 0.00 0.00 81 1013.2
20260905151845 51 268 0.0 0.0 0.00 0.00 0.00 81 1013.2
20260905151304 51 268 0.0 0.0 0.00 0.00 0.00 80 1013.1
20260905151054 51 268 0.0 0.0 0.00 0.00 0.00 80 1013.0
20260905150845 51 268 0.0 0.0 0.00 0.00 0.00 80 1013.0
20260905150640 51 268 0.0 0.0 0.00 0.00 0.00 80 1013.0
20260905150429 51 268 0.0 0.0 0.00 0.00 0.00 80 1013.0
20260905150224 51 268 0.0 0.0 0.00 0.00 0.00 80 1013.0
20260905150013 51 268 0.0 0.0 0.00 0.00 0.00 80 1013.0
20260905145802 51 268 0.0 0.0 0.00 0.00 0.00 80 1012.9
20260905145404 51 268 0.0 0.0 0.00 0.00 0.00 80 1012.9
20260905145154 51 268 0.0 0.0 0.00 0.00 0.00 79 1013.0
20260905144941 51 268 0.0 0.0 0.00 0.00 0.00 79 1012.9
20260905144730 51 268 0.0 0.0 0.00 0.00 0.00 79 1012.8
20260905144524 51 268 0.0 0.0 0.00 0.00 0.00 79 1012.8
20260905144317 51 268 0.0 0.0 0.00 0.00 0.00 79 1012.9
20260905144105 51 268 0.0 0.0 0.00 0.00 0.00 79 1012.9
20260905143900 51 268 0.0 0.0 0.00 0.00 0.00 79 1012.9
20260905143328 51 268 0.0 0.0 0.00 0.00 0.00 79 1012.8
20260905143120 51 268 0.0 0.0 0.00 0.00 0.00 79 1012.8
20260905142913 51 268 0.0 0.0 0.00 0.00 0.00 79 1012.8
20260905142521 51 268 0.0 0.0 0.00 0.00 0.00 79 1012.8
20260905142318 51 268 0.0 0.0 0.00 0.00 0.00 79 1012.8
20260905142107 51 268 0.0 0.0 0.00 0.00 0.00 79 1012.8
20260905141859 51 268 0.0 0.0 0.00 0.00 0.00 78 1012.8
20260905141657 51 268 0.0 0.0 0.00 0.00 0.00 78 1012.8
20260905141444 51 268 0.0 0.0 0.00 0.00 0.00 78 1012.7
20260905141057 51 268 0.0 0.0 0.00 0.00 0.00 78 1012.7
20260905140845 51 268 0.0 0.0 0.00 0.00 0.00 78 1012.6
20260905140639 51 268 0.0 0.0 0.00 0.00 0.00 78 1012.5
20260905140241 51 268 0.0 0.0 0.00 0.00 0.00 78 1012.6
20260905140034 51 268 0.0 0.0 0.00 0.00 0.00 78 1012.6
20260905135824 51 268 0.0 0.0 0.00 0.00 0.00 78 1012.6
20260905135613 51 268 0.0 0.0 0.00 0.00 0.00 78 1012.5
20260905135400 51 268 0.0 0.0 0.00 0.00 0.00 78 1012.5
20260905135149 51 268 0.0 0.0 0.00 0.00 0.00 77 1012.5
20260905134609 51 268 0.0 0.0 0.00 0.00 0.00 77 1012.5
20260905134357 51 268 0.0 0.0 0.00 0.00 0.00 77 1012.5
20260905134156 51 268 0.0 0.0 0.00 0.00 0.00 77 1012.5
20260905133953 51 268 0.0 0.0 0.00 0.00 0.00 77 1012.5
20260905133750 51 268 0.0 0.0 0.00 0.00 0.00 77 1012.5
20260905133537 51 268 0.0 0.0 0.00 0.00 0.00 77 1012.5
20260905133330 51 268 0.0 0.0 0.00 0.00 0.00 77 1012.5
20260905133118 51 268 0.0 0.0 0.00 0.00 0.00 77 1012.5
20260905132720 52 268 0.0 0.0 0.00 0.00 0.00 77 1012.5
20260905132509 52 268 0.0 0.0 0.00 0.00 0.00 77 1012.4
20260905132259 52 268 0.0 0.0 0.00 0.00 0.00 76 1012.4
20260905131714 52 268 0.0 0.0 0.00 0.00 0.00 76 1012.4
20260905131503 52 268 0.0 0.0 0.00 0.00 0.00 76 1012.4
20260905131259 52 268 0.0 0.0 0.00 0.00 0.00 76 1012.4
20260905131050 52 268 0.0 0.0 0.00 0.00 0.00 76 1012.4
20260905130845 52 268 0.0 0.0 0.00 0.00 0.00 76 1012.3
20260905130636 52 268 0.0 0.0 0.00 0.00 0.00 76 1012.3
20260905130432 52 268 0.0 0.0 0.00 0.00 0.00 76 1012.3
20260905130230 52 268 0.0 0.0 0.00 0.00 0.00 76 1012.3
20260905130022 52 268 0.0 0.0 0.00 0.00 0.00 76 1012.3
20260905125819 52 268 0.0 0.0 0.00 0.00 0.00 76 1012.3
20260905125608 52 268 0.0 0.0 0.00 0.00 0.00 76 1012.4
20260905125220 52 268 0.0 0.0 0.00 0.00 0.00 76 1012.3
20260905125018 52 268 0.0 0.0 0.00 0.00 0.00 76 1012.4
20260905124809 53 268 0.0 0.0 0.00 0.00 0.00 76 1012.4
20260905124414 53 268 0.0 0.0 0.00 0.00 0.00 76 1012.3
20260905124203 53 268 0.0 0.0 0.00 0.00 0.00 76 1012.3
20260905123952 53 268 0.0 0.0 0.00 0.00 0.00 76 1012.3
20260905123747 53 268 0.0 0.0 0.00 0.00 0.00 76 1012.3
20260905123542 53 268 0.0 0.0 0.00 0.00 0.00 76 1012.3
20260905123336 53 268 0.0 0.0 0.00 0.00 0.00 76 1012.3
20260905123133 53 268 0.0 0.0 0.00 0.00 0.00 76 1012.3
20260905122742 53 268 0.0 0.0 0.00 0.00 0.00 76 1012.3
20260905122346 53 268 0.0 0.0 0.00 0.00 0.00 76 1012.2
20260905122143 53 268 0.0 0.0 0.00 0.00 0.00 76 1012.3
20260905121931 53 268 0.0 0.0 0.00 0.00 0.00 76 1012.3
20260905121723 53 268 0.0 0.0 0.00 0.00 0.00 76 1012.3
20260905121518 53 268 0.0 0.0 0.00 0.00 0.00 76 1012.3
20260905120940 53 268 0.0 0.0 0.00 0.00 0.00 76 1012.3
20260905120729 53 268 0.0 0.0 0.00 0.00 0.00 76 1012.3
20260905120521 53 268 0.0 0.0 0.00 0.00 0.00 76 1012.3
20260905120130 54 268 0.0 0.0 0.00 0.00 0.00 77 1012.3
20260905115740 54 268 0.0 0.0 0.00 0.00 0.00 77 1012.3
20260905115530 54 268 0.0 0.0 0.00 0.00 0.00 77 1012.3
20260905115320 54 268 0.0 0.0 0.00 0.00 0.00 77 1012.4
20260905115111 54 268 0.0 0.0 0.00 0.00 0.00 77 1012.3
20260905114908 54 268 0.0 0.0 0.00 0.00 0.00 77 1012.3
20260905114657 54 268 0.0 0.0 0.00 0.00 0.00 77 1012.4
20260905114452 54 268 0.0 0.0 0.00 0.00 0.00 77 1012.4
20260905114251 54 268 0.0 0.0 0.00 0.00 0.00 77 1012.4
20260905113854 53 268 0.0 0.0 0.00 0.00 0.00 77 1012.4
20260905113646 54 268 0.0 0.0 0.00 0.00 0.00 77 1012.4
20260905113252 53 268 0.0 0.0 0.00 0.00 0.00 77 1012.4
20260905113044 53 268 0.0 0.0 0.00 0.00 0.00 77 1012.5
20260905112834 53 268 0.0 0.0 0.00 0.00 0.00 77 1012.5
20260905112626 53 268 0.0 0.0 0.00 0.00 0.00 77 1012.5
20260905112235 53 268 0.0 0.0 0.00 0.00 0.00 77 1012.5
20260905112031 53 268 0.0 0.0 0.00 0.00 0.00 77 1012.5
20260905111829 53 268 0.0 0.0 0.00 0.00 0.00 77 1012.5
20260905111618 53 268 0.0 0.0 0.00 0.00 0.00 77 1012.5
20260905111408 53 268 0.0 0.0 0.00 0.00 0.00 77 1012.5
20260905111206 53 268 0.0 0.0 0.00 0.00 0.00 77 1012.5
20260905110955 53 268 0.0 0.0 0.00 0.00 0.00 77 1012.5
20260905110745 53 268 0.0 0.0 0.00 0.00 0.00 77 1012.5
20260905110541 53 268 0.0 0.0 0.00 0.00 0.00 77 1012.5
20260905110330 53 268 0.0 0.0 0.00 0.00 0.00 77 1012.5
20260905110118 53 268 0.0 0.0 0.00 0.00 0.00 77 1012.5
20260905105905 53 268 0.0 0.0 0.00 0.00 0.00 77 1012.5
20260905105508 53 268 0.0 0.0 0.00 0.00 0.00 77 1012.5
20260905105110 53 268 0.0 0.0 0.00 0.00 0.00 77 1012.6
20260905104904 53 268 0.0 0.0 0.00 0.00 0.00 77 1012.5
20260905104659 53 268 0.0 0.0 0.00 0.00 0.00 77 1012.5
20260905104457 53 268 0.0 0.0 0.00 0.00 0.00 77 1012.5
20260905104245 53 268 0.0 0.0 0.00 0.00 0.00 77 1012.5
20260905104041 53 268 0.0 0.0 0.00 0.00 0.00 76 1012.5
20260905103839 53 268 0.0 0.0 0.00 0.00 0.00 76 1012.5
20260905103447 53 268 0.0 0.0 0.00 0.00 0.00 76 1012.5
20260905103243 53 268 0.0 0.0 0.00 0.00 0.00 76 1012.4
20260905103032 53 268 0.0 0.0 0.00 0.00 0.00 76 1012.5
20260905102827 53 268 0.0 0.0 0.00 0.00 0.00 76 1012.5
20260905102625 53 268 0.0 0.0 0.00 0.00 0.00 76 1012.5
20260905102422 53 268 0.0 0.0 0.00 0.00 0.00 76 1012.5
20260905102209 53 268 0.0 0.0 0.00 0.00 0.00 76 1012.5
20260905101957 53 268 0.0 0.0 0.00 0.00 0.00 76 1012.5
20260905101750 53 268 0.0 0.0 0.00 0.00 0.00 76 1012.5
20260905101547 53 268 0.0 0.0 0.00 0.00 0.00 76 1012.6
20260905101339 53 268 0.0 0.0 0.00 0.00 0.00 76 1012.5
20260905101136 53 268 0.0 0.0 0.00 0.00 0.00 76 1012.6
20260905100934 53 268 0.0 0.0 0.00 0.00 0.00 76 1012.6
20260905100730 53 268 0.0 0.0 0.00 0.00 0.00 76 1012.7
20260905100521 53 268 0.0 0.0 0.00 0.00 0.00 76 1012.7
20260905100134 53 268 0.0 0.0 0.00 0.00 0.00 76 1012.7
20260905095928 53 268 0.0 0.0 0.00 0.00 0.00 76 1012.7
20260905095727 53 268 0.0 0.0 0.00 0.00 0.00 76 1012.7
20260905095330 53 268 0.0 0.0 0.00 0.00 0.00 76 1012.7
20260905094751 53 268 0.0 0.0 0.00 0.00 0.00 76 1012.6
20260905094401 53 268 0.0 0.0 0.00 0.00 0.00 76 1012.7
20260905094151 53 268 0.0 0.0 0.00 0.00 0.00 76 1012.7
20260905093939 53 268 0.0 0.0 0.00 0.00 0.00 76 1012.7
20260905093728 53 268 0.0 0.0 0.00 0.00 0.00 76 1012.7
20260905093521 53 268 0.0 0.0 0.00 0.00 0.00 76 1012.7
20260905093317 53 268 0.0 0.0 0.00 0.00 0.00 76 1012.7
20260905093108 53 268 0.0 0.0 0.00 0.00 0.00 76 1012.7
20260905092900 53 268 0.0 0.0 0.00 0.00 0.00 76 1012.7
20260905092657 53 268 0.0 0.0 0.00 0.00 0.00 75 1012.7
20260905092455 53 268 0.0 0.0 0.00 0.00 0.00 75 1012.8
20260905092244 53 268 0.0 0.0 0.00 0.00 0.00 75 1012.8
20260905091849 53 268 0.0 0.0 0.00 0.00 0.00 75 1012.8
20260905091642 53 268 0.0 0.0 0.00 0.00 0.00 75 1012.8
20260905091441 53 268 0.0 0.0 0.00 0.00 0.00 75 1012.9
20260905091051 53 268 0.0 0.0 0.00 0.00 0.00 75 1012.8
20260905090702 53 268 0.0 0.0 0.00 0.00 0.00 75 1012.8
20260905090456 53 268 0.0 0.0 0.00 0.00 0.00 75 1012.8
20260905090100 53 268 0.0 0.0 0.00 0.00 0.00 75 1012.8
20260905085858 53 268 0.0 0.0 0.00 0.00 0.00 75 1012.8
20260905085650 53 268 0.0 0.0 0.00 0.00 0.00 74 1012.9
20260905085257 53 268 0.0 0.0 0.00 0.00 0.00 74 1012.9
20260905085048 53 268 0.0 0.0 0.00 0.00 0.00 74 1013.0
20260905084835 53 268 0.0 0.0 0.00 0.00 0.00 74 1013.0
20260905084624 53 268 0.0 0.0 0.00 0.00 0.00 74 1013.0
20260905084422 53 268 0.0 0.0 0.00 0.00 0.00 74 1013.0
20260905084215 53 268 0.0 0.0 0.00 0.00 0.00 74 1013.0
20260905083826 53 268 0.0 0.0 0.00 0.00 0.00 74 1013.0
20260905083613 53 268 0.0 0.0 0.00 0.00 0.00 74 1013.1
20260905083408 53 268 0.0 0.0 0.00 0.00 0.00 74 1013.0
20260905083200 53 268 0.0 0.0 0.00 0.00 0.00 74 1013.1
20260905082947 53 268 0.0 0.0 0.00 0.00 0.00 74 1013.0
20260905082551 53 268 0.0 0.0 0.00 0.00 0.00 74 1013.0
20260905082344 54 268 0.0 0.0 0.00 0.00 0.00 73 1012.9
20260905082136 54 268 0.0 0.0 0.00 0.00 0.00 74 1013.0
20260905081930 54 268 0.0 0.0 0.00 0.00 0.00 73 1012.9
20260905081718 54 268 0.0 0.0 0.00 0.00 0.00 73 1012.9
20260905081505 54 268 0.0 0.0 0.00 0.00 0.00 73 1013.0
20260905081257 54 268 0.0 0.0 0.00 0.00 0.00 73 1013.0
20260905081047 54 268 0.0 0.0 0.00 0.00 0.00 73 1013.0
20260905080649 54 268 0.0 0.0 0.00 0.00 0.00 73 1013.1
20260905080447 54 268 0.0 0.0 0.00 0.00 0.00 73 1013.0
20260905080240 54 268 0.0 0.0 0.00 0.00 0.00 73 1013.0
20260905080034 54 268 0.0 0.0 0.00 0.00 0.00 73 1013.0
20260905075636 54 268 0.0 0.0 0.00 0.00 0.00 73 1013.0
20260905075428 54 268 0.0 0.0 0.00 0.00 0.00 73 1012.9
20260905075227 54 268 0.0 0.0 0.00 0.00 0.00 72 1012.9
20260905075015 54 268 0.0 0.0 0.00 0.00 0.00 72 1013.0
20260905074620 55 268 0.0 0.0 0.00 0.00 0.00 72 1012.9
20260905074411 55 268 0.0 0.0 0.00 0.00 0.00 72 1012.8
20260905074207 55 268 0.0 0.0 0.00 0.00 0.00 72 1012.7
20260905074006 55 268 0.0 0.0 0.00 0.00 0.00 72 1012.8
20260905073756 55 268 0.0 0.0 0.00 0.00 0.00 72 1012.9
20260905073553 55 268 0.0 0.0 0.00 0.00 0.00 72 1012.8
20260905073344 55 268 0.0 0.0 0.00 0.00 0.00 72 1012.9
20260905073140 55 268 0.0 0.0 0.00 0.00 0.00 72 1012.8
20260905072744 55 268 0.0 0.0 0.00 0.00 0.00 72 1012.8
20260905072541 55 268 0.0 0.0 0.00 0.00 0.00 71 1012.9
20260905072332 55 268 0.0 0.0 0.00 0.00 0.00 71 1012.8
20260905072122 55 268 0.0 0.0 0.00 0.00 0.00 71 1012.7
20260905071920 55 268 0.0 0.0 0.00 0.00 0.00 71 1012.8
20260905071709 55 268 0.0 0.0 0.00 0.00 0.00 71 1012.7
20260905071312 55 268 0.0 0.0 0.00 0.00 0.00 71 1012.7
20260905070925 55 268 0.0 0.0 0.00 0.00 0.00 71 1012.7
20260905070721 55 268 0.0 0.0 0.00 0.00 0.00 71 1012.7
20260905070511 56 268 0.0 0.0 0.00 0.00 0.00 71 1012.6
20260905070304 56 268 0.0 0.0 0.00 0.00 0.00 71 1012.6
20260905065546 56 268 0.0 0.0 0.00 0.00 0.00 71 1012.6
20260905065344 56 268 0.0 0.0 0.00 0.00 0.00 71 1012.6
20260905065138 56 268 0.0 0.0 0.00 0.00 0.00 71 1012.6
20260905064937 56 268 0.0 0.0 0.00 0.00 0.00 70 1012.5
20260905064547 56 268 0.0 0.0 0.00 0.00 0.00 70 1012.5
20260905064343 56 268 0.0 0.0 0.00 0.00 0.00 70 1012.5
20260905064133 56 268 0.0 0.0 0.00 0.00 0.00 70 1012.5
20260905063745 56 268 0.0 0.0 0.00 0.00 0.00 70 1012.5
20260905063539 56 268 0.0 0.0 0.00 0.00 0.00 70 1012.5
20260905063152 56 268 0.0 0.0 0.00 0.00 0.00 70 1012.4
20260905062943 56 268 0.0 0.0 0.00 0.00 0.00 70 1012.5
20260905062731 56 268 0.0 0.0 0.00 0.00 0.00 70 1012.5
20260905062518 56 268 0.0 0.0 0.00 0.00 0.00 70 1012.5
20260905062122 56 268 0.0 0.0 0.00 0.00 0.00 70 1012.4
20260905061920 56 268 0.0 0.0 0.00 0.00 0.00 70 1012.5
20260905061708 56 268 0.0 0.0 0.00 0.00 0.00 70 1012.4
20260905061321 56 268 0.0 0.0 0.00 0.00 0.00 70 1012.4
20260905061117 56 268 0.0 0.0 0.00 0.00 0.00 70 1012.4
20260905060908 56 268 0.0 0.0 0.00 0.00 0.00 70 1012.4
20260905060704 56 268 0.0 0.0 0.00 0.00 0.00 70 1012.4
20260905060121 56 268 0.0 0.0 0.00 0.00 0.00 69 1012.3
20260905055914 56 268 0.0 0.0 0.00 0.00 0.00 69 1012.3
20260905055708 56 268 0.0 0.0 0.00 0.00 0.00 69 1012.3
20260905055455 56 268 0.0 0.0 0.00 0.00 0.00 69 1012.3
20260905055250 56 268 0.0 0.0 0.00 0.00 0.00 69 1012.3
20260905055040 56 268 0.0 0.0 0.00 0.00 0.00 69 1012.3
20260905054836 56 268 0.0 0.0 0.00 0.00 0.00 69 1012.3
20260905054633 56 268 0.0 0.0 0.00 0.00 0.00 69 1012.3
20260905054429 56 268 0.0 0.0 0.00 0.00 0.00 69 1012.3
20260905054222 56 268 0.0 0.0 0.00 0.00 0.00 69 1012.3
20260905054012 56 268 0.0 0.0 0.00 0.00 0.00 69 1012.3
20260905053802 56 268 0.0 0.0 0.00 0.00 0.00 69 1012.3
20260905053416 56 268 0.0 0.0 0.00 0.00 0.00 68 1012.3
20260905053206 56 268 0.0 0.0 0.00 0.00 0.00 68 1012.3
20260905053001 56 268 0.0 0.0 0.00 0.00 0.00 68 1012.3
20260905052614 56 268 0.0 0.0 0.00 0.00 0.00 68 1012.3
20260905052412 56 268 0.0 0.0 0.00 0.00 0.00 68 1012.4
20260905051831 56 268 0.0 0.0 0.00 0.00 0.00 68 1012.4
20260905051438 57 268 0.0 0.0 0.00 0.00 0.00 67 1012.4
20260905051233 57 268 0.0 0.0 0.00 0.00 0.00 67 1012.4
20260905050844 57 268 0.0 0.0 0.00 0.00 0.00 67 1012.4
20260905050633 57 268 0.0 0.0 0.00 0.00 0.00 67 1012.4
20260905050429 57 268 0.0 0.0 0.00 0.00 0.00 66 1012.4
20260905050227 57 268 0.0 0.0 0.00 0.00 0.00 66 1012.4
20260905045840 57 268 0.0 0.0 0.00 0.00 0.00 66 1012.4
20260905045629 57 268 0.0 0.0 0.00 0.00 0.00 66 1012.4
20260905045422 57 268 0.0 0.0 0.00 0.00 0.00 66 1012.4
20260905045209 57 268 0.0 0.0 0.00 0.00 0.00 66 1012.4
20260905045002 57 268 0.0 0.0 0.00 0.00 0.00 66 1012.4
20260905044756 57 268 0.0 0.0 0.00 0.00 0.00 66 1012.4
20260905044551 57 268 0.0 0.0 0.00 0.00 0.00 65 1012.4
20260905044342 57 268 0.0 0.0 0.00 0.00 0.00 66 1012.3
20260905044137 58 268 0.0 0.0 0.00 0.00 0.00 65 1012.4
20260905043935 58 268 0.0 0.0 0.00 0.00 0.00 65 1012.4
20260905043724 58 268 0.0 0.0 0.00 0.00 0.00 65 1012.3
20260905043517 58 268 0.0 0.0 0.00 0.00 0.00 65 1012.3
20260905043123 58 268 0.0 0.0 0.00 0.00 0.00 64 1012.3
20260905042917 58 268 0.0 0.0 0.00 0.00 0.00 64 1012.3
20260905042711 58 268 0.0 0.0 0.00 0.00 0.00 64 1012.3
20260905042457 58 268 0.0 0.0 0.00 0.00 0.00 64 1012.3
20260905042244 58 268 0.0 0.0 0.00 0.00 0.00 63 1012.2
20260905042035 58 268 0.0 0.0 0.00 0.00 0.00 63 1012.2
20260905041832 59 268 0.0 0.0 0.00 0.00 0.00 63 1012.2
20260905041622 59 268 0.0 0.0 0.00 0.00 0.00 63 1012.3
20260905041413 59 268 0.0 0.0 0.00 0.00 0.00 63 1012.2
20260905041209 59 268 0.0 0.0 0.00 0.00 0.00 63 1012.2
20260905041002 59 268 0.0 0.0 0.00 0.00 0.00 63 1012.1
20260905040750 59 268 0.0 0.0 0.00 0.00 0.00 62 1012.2
20260905040545 59 268 0.0 0.0 0.00 0.00 0.00 62 1012.1
20260905040343 59 268 0.0 0.0 0.00 0.00 0.00 62 1012.1
20260905040142 60 268 0.0 0.0 0.00 0.00 0.00 62 1012.1
20260905035934 60 268 0.0 0.0 0.00 0.00 0.00 62 1012.0
20260905035725 60 268 0.0 0.0 0.00 0.00 0.00 62 1012.1
20260905035524 60 268 0.0 0.0 0.00 0.00 0.00 61 1012.1
20260905035320 60 268 0.0 0.0 0.00 0.00 0.00 61 1012.1
20260905035118 60 268 0.0 0.0 0.00 0.00 0.00 61 1012.0
20260905034914 60 268 0.0 0.0 0.00 0.00 0.00 61 1012.0
20260905034527 60 268 0.0 0.0 0.00 0.00 0.00 60 1011.9
20260905034320 61 268 0.0 0.0 0.00 0.00 0.00 60 1011.9
20260905034114 61 268 0.0 0.0 0.00 0.00 0.00 60 1011.9
20260905033911 61 268 0.0 0.0 0.00 0.00 0.00 60 1011.9
20260905033705 61 268 0.0 0.0 0.00 0.00 0.00 59 1011.9
20260905033452 61 268 0.0 0.0 0.00 0.00 0.00 60 1011.8
20260905033240 61 268 0.0 0.0 0.00 0.00 0.00 59 1011.8
20260905033039 61 268 0.0 0.0 0.00 0.00 0.00 59 1011.8
20260905032651 62 268 0.0 0.0 0.00 0.00 0.00 59 1011.7
20260905032444 62 268 0.0 0.0 0.00 0.00 0.00 59 1011.7
20260905032238 62 268 0.0 0.0 0.00 0.00 0.00 58 1011.6
20260905032035 62 268 0.0 0.0 0.00 0.00 0.00 58 1011.7
20260905031825 62 268 0.0 0.0 0.00 0.00 0.00 58 1011.6
20260905031616 63 268 0.0 0.0 0.00 0.00 0.00 58 1011.6
20260905031407 63 268 0.0 0.0 0.00 0.00 0.00 58 1011.6
20260905031203 63 268 0.0 0.0 0.00 0.00 0.00 58 1011.6
20260905031000 63 268 0.0 0.0 0.00 0.00 0.00 57 1011.6
20260905030749 63 268 0.0 0.0 0.00 0.00 0.00 57 1011.6
20260905030541 64 268 0.0 0.0 0.00 0.00 0.00 57 1011.5
20260905030335 64 268 0.0 0.0 0.00 0.00 0.00 57 1011.5
20260905030132 64 268 0.0 0.0 0.00 0.00 0.00 57 1011.5
20260905025923 64 268 0.0 0.0 0.00 0.00 0.00 57 1011.5
20260905025719 64 268 0.0 0.0 0.00 0.00 0.00 56 1011.4
20260905025515 65 268 0.0 0.0 0.00 0.00 0.00 56 1011.4
20260905025311 65 268 0.0 0.0 0.00 0.00 0.00 56 1011.5
20260905025103 65 268 0.0 0.0 0.00 0.00 0.00 55 1011.4
20260905024900 65 268 0.0 0.0 0.00 0.00 0.00 55 1011.4
20260905024658 65 268 0.0 0.0 0.00 0.00 0.00 55 1011.4
20260905024454 65 268 0.0 0.0 0.00 0.00 0.00 55 1011.4
20260905024244 66 268 0.0 0.0 0.00 0.00 0.00 55 1011.4
20260905024033 66 268 0.0 0.0 0.00 0.00 0.00 55 1011.3
20260905023634 66 268 0.0 0.0 0.00 0.00 0.00 55 1011.3
20260905023422 66 268 0.0 0.0 0.00 0.00 0.00 54 1011.3
20260905023214 66 268 0.0 0.0 0.00 0.00 0.00 54 1011.3
20260905022637 67 268 0.0 0.0 0.00 0.00 0.00 54 1011.3
20260905022425 67 268 0.0 0.0 0.00 0.00 0.00 54 1011.2
20260905022220 67 268 0.0 0.0 0.00 0.00 0.00 54 1011.2
20260905022010 67 268 0.0 0.0 0.00 0.00 0.00 54 1011.2
20260905021807 67 268 0.0 0.0 0.00 0.00 0.00 54 1011.2
20260905021556 68 268 0.0 0.0 0.00 0.00 0.00 54 1011.2
20260905021209 68 268 0.0 0.0 0.00 0.00 0.00 53 1011.2
20260905020818 68 268 0.0 0.0 0.00 0.00 0.00 53 1011.2
20260905020609 68 268 0.0 0.0 0.00 0.00 0.00 53 1011.2
20260905020400 68 268 0.0 0.0 0.00 0.00 0.00 53 1011.2
20260905020150 68 268 0.0 0.0 0.00 0.00 0.00 53 1011.1
20260905015942 68 268 0.0 0.0 0.00 0.00 0.00 53 1011.2
20260905015736 68 268 0.0 0.0 0.00 0.00 0.00 52 1011.1
20260905015527 68 268 0.0 0.0 0.00 0.00 0.00 52 1011.1
20260905015319 69 268 0.0 0.0 0.00 0.00 0.00 52 1011.1
20260905015114 69 268 0.0 0.0 0.00 0.00 0.00 51 1011.1
20260905014912 69 268 0.0 0.0 0.00 0.00 0.00 51 1011.2
20260905014710 69 268 0.0 0.0 0.00 0.00 0.00 51 1011.1
20260905014502 69 268 0.0 0.0 0.00 0.00 0.00 51 1011.1
20260905014256 69 268 0.0 1.0 0.00 0.00 0.00 51 1011.2
20260905014052 69 268 0.0 0.0 0.00 0.00 0.00 51 1011.1
20260905013845 69 268 0.0 0.0 0.00 0.00 0.00 51 1011.1
20260905013639 69 268 0.0 0.0 0.00 0.00 0.00 51 1011.2
20260905013425 69 268 0.0 0.0 0.00 0.00 0.00 51 1011.2
20260905013217 69 268 0.0 0.0 0.00 0.00 0.00 51 1011.2
20260905013008 69 266 0.0 5.0 0.00 0.00 0.00 51 1011.2
20260905012755 69 323 0.0 4.0 0.00 0.00 0.00 51 1011.2
20260905012549 69 282 0.0 4.0 0.00 0.00 0.00 51 1011.1
20260905012340 70 281 0.0 4.0 0.00 0.00 0.00 50 1011.2
20260905012132 70 281 0.0 4.0 0.00 0.00 0.00 50 1011.2
20260905011927 70 309 0.0 4.0 0.00 0.00 0.00 50 1011.1
20260905011715 70 252 0.0 5.0 0.00 0.00 0.00 50 1011.1
20260905011506 70 275 0.0 5.0 0.00 0.00 0.00 50 1011.1
20260905011257 70 283 0.0 5.0 0.00 0.00 0.00 50 1011.1
20260905011043 70 283 0.0 5.0 0.00 0.00 0.00 50 1011.0
20260905010836 70 337 0.0 5.0 0.00 0.00 0.00 50 1011.0
20260905010305 70 80 0.0 4.0 0.00 0.00 0.00 50 1011.0
20260905005724 70 257 0.0 5.0 0.00 0.00 0.00 50 1010.9
20260905005512 71 298 0.0 5.0 0.00 0.00 0.00 50 1011.0
20260905005309 71 268 0.0 5.0 0.00 0.00 0.00 50 1011.0
20260905005103 71 269 0.0 5.0 0.00 0.00 0.00 49 1011.0
20260905004856 71 268 0.0 5.0 0.00 0.00 0.00 50 1011.0
20260905004500 71 226 0.0 5.0 0.00 0.00 0.00 50 1010.9
20260905004254 71 226 0.0 5.0 0.00 0.00 0.00 50 1010.8
20260905003904 71 282 0.0 0.0 0.00 0.00 0.00 51 1010.7
20260905003701 71 282 0.0 1.0 0.00 0.00 0.00 50 1010.7
20260905003459 71 282 0.0 4.0 0.00 0.00 0.00 50 1010.8
20260905003251 71 282 0.0 4.0 0.00 0.00 0.00 50 1010.8
20260905002856 71 242 0.0 4.0 0.00 0.00 0.00 51 1010.7
20260905002643 71 242 0.0 4.0 0.00 0.00 0.00 51 1010.8
20260905002438 71 242 0.0 0.0 0.00 0.00 0.00 51 1010.8
20260905002227 71 242 0.0 0.0 0.00 0.00 0.00 51 1010.7
20260905002015 71 242 0.0 3.0 0.00 0.00 0.00 51 1010.9
20260905001623 71 241 0.0 3.0 0.00 0.00 0.00 50 1010.9
20260905001422 71 241 1.0 2.0 0.00 0.00 0.00 50 1010.9
20260905001217 71 241 1.0 5.0 0.00 0.00 0.00 50 1010.9
20260905001015 71 241 1.0 5.0 0.00 0.00 0.00 50 1010.8
20260905000808 71 254 1.0 5.0 0.00 0.00 0.00 50 1011.0
20260905000600 71 262 1.0 5.0 0.00 0.00 0.00 50 1010.9
20260905000349 72 232 0.0 5.0 0.00 0.00 0.00 50 1010.8
20260905000001 72 242 0.0 5.0 0.00 0.00 0.00 51 1010.9
20260904235754 72 336 0.0 3.0 0.00 0.00 0.00 51 1010.9
20260904235358 72 288 0.0 3.0 0.00 0.00 0.00 51 1010.8
20260904235149 71 201 0.0 3.0 0.00 0.00 0.00 51 1010.9
20260904234938 71 200 0.0 2.0 0.00 0.00 0.00 52 1010.9